Flag for Germany Weather past 2 weeks in Bayreuth, Bavaria, Germany

Now
64 °F

Passing clouds.


Feels Like: 64 °F
Forecast: 62 / 90 °F
Wind: No wind

Location: Grafenwoehr

Current Time: Aug 29, 2015 at 2:38:10 AM

Latest Report: Aug 29, 2015 at 1:58 AM


Visibility: N/A

Pressure: 30.16 "Hg

Humidity: 94%

Dew point: 63 °F

Location of BayreuthLocation

Historic Weather in Bayreuth — Graph

°F

Bayreuth temperature yesterday

Maximum temperature yesterday: 77 °F (at 1:58 PM)
Minimum temperature yesterday: 62 °F (at 12:58 AM)
Average temperature yesterday: 70 °F

Past Weeks' High & Low Weather Summary

 TemperatureHumidityPressure
High90 °F (Aug 14, 3:58 PM)100% (Aug 15, 12:58 AM)30.27 "Hg (Aug 15, 12:58 AM)
Low43 °F (Aug 22, 5:58 AM)26% (Aug 26, 4:58 PM)29.68 "Hg (Aug 14, 4:58 PM)
Average64 °F73%29.96 "Hg
* Reported Aug 14 12:58 AM — Aug 29 12:58 AM, Bayreuth, Weather by CustomWeather, © 2015

Note: Actual official high and low records may vary slightly from our data, if they occured in-between our weather recording intervals... More about our weather records

Advertising

Bayreuth weather history for previous 24 hours

 ConditionsComfort  
Time TempWeatherWind HumidityBarometerVisibility
12:58 AM
Sat, Aug 29
66 °FOvercast.No wind87%30.14 "HgN/A
11:58 PM
Fri, Aug 28
67 °FOvercast.No wind84%30.14 "HgN/A
10:58 PM68 °FOvercast.3 mph83%30.15 "HgN/A
9:58 PM70 °FMostly cloudy.2 mph73%30.13 "HgN/A
8:58 PM72 °FOvercast.2 mph69%30.11 "HgN/A
7:58 PM72 °FOvercast.6 mph69%30.09 "HgN/A
6:58 PM74 °FPartly sunny.6 mph64%30.08 "HgN/A
5:58 PM75 °FOvercast.6 mph61%30.08 "HgN/A
4:58 PM75 °FMore clouds than sun.8 mph63%30.08 "HgN/A
3:58 PM74 °FMore clouds than sun.7 mph68%30.07 "HgN/A
2:58 PM76 °FMostly cloudy.9 mph59%30.06 "HgN/A
1:58 PM77 °FOvercast.7 mph57%30.04 "HgN/A
12:58 PM77 °FCloudy.6 mph57%30.04 "HgN/A
11:58 AM74 °FCloudy.8 mph65%30.04 "HgN/A
10:58 AM71 °FOvercast.8 mph70%30.03 "HgN/A
9:58 AM70 °FMostly cloudy.6 mph73%30.03 "HgN/A
8:58 AM68 °FOvercast.3 mph78%29.99 "HgN/A
8:04 AM68 °FDrizzle. Mostly cloudy.5 mph78%30.03 "HgN/A
7:58 AM68 °FOvercast.2 mph78%29.97 "HgN/A
6:58 AM66 °FOvercast.2 mph78%29.94 "HgN/A
5:58 AM67 °FOvercast.5 mph74%29.94 "HgN/A
4:58 AM68 °FMostly cloudy.5 mph73%29.92 "HgN/A
3:58 AM64 °FMostly cloudy.3 mph73%29.88 "HgN/A
2:58 AM63 °FMostly cloudy.No wind83%29.85 "HgN/A
Weather by CustomWeather, © 2015

See weather overviewHow to use our weather pages